[[{"header":{"parameterUnit":"m.s-1","parameterCategory":1,"la1":30.2991,"la2":30.254,"lo1":-89.0895,"lo2":-89.0444,"dy":0.0017,"dx":0.0017,"nx":28,"ny":28,"refTime":"2024-11-25T03:00:00:Z","depth":0,"parameterNumber":2,"parameterNumberName":"U-component_of_WINDS"},"data":[0,0,0,0,0,0,0,0,0,0,0,0,0,0,0,0,0,0,0,0,0,0,0,0,0,0,0,0,0,0,0,0,0,0,0,0,0,0,0,0,0,0,0,0,0,0,0,0,0,0,0,0,0,0,0,0,0,0,-0.8837,-0.8837,0,-0.8854,-0.8855,-0.8855,-0.8851,-0.8851,-0.885,-0.885,-0.8869,-0.8869,-0.887,0,0,0,0,0,0,0,0,0,0,0,0,0,-0.8802,-0.8803,-0.8837,-0.8837,-0.8838,-0.8854,-0.8855,-0.8855,-0.8851,-0.8851,-0.885,-0.885,-0.8868,-0.8869,-0.887,0,0,0,0,0,0,0,0,0,0,0,0,0,-0.8818,-0.8803,-0.8837,-0.8838,-0.8838,-0.8854,-0.8855,-0.8855,-0.8851,-0.8851,-0.885,-0.885,-0.8868,-0.8869,-0.887,-0.8887,0,0,-0.8874,-0.8874,0,0,0,0,0,0,0,0,-0.8817,-0.882,-0.8837,-0.8838,-0.8838,-0.885,-0.8849,-0.8866,-0.8851,-0.8846,-0.885,-0.885,-0.8863,-0.8864,-0.8869,-0.8888,-0.8889,-0.8874,-0.8875,-0.8875,-0.8876,0,0,0,0,0,0,0,-0.8816,-0.8819,-0.8844,-0.8838,-0.8838,-0.8838,-0.8839,-0.8852,-0.8857,-0.8847,-0.8846,-0.8848,-0.8863,-0.8868,-0.8869,-0.8889,-0.8874,-0.8875,-0.8876,-0.8876,-0.8924,-0.8925,0,0,0,0,0,0,-0.8815,-0.8818,-0.8843,-0.8845,-0.8826,-0.8839,-0.8841,-0.8847,-0.8857,-0.8858,-0.8849,-0.8848,-0.8866,-0.8868,-0.887,-0.889,-0.8875,-0.8876,-0.8877,-0.8923,-0.8924,-0.8925,0,0,0,0,0,0,-0.8814,-0.8817,-0.8843,-0.8831,-0.8834,-0.884,-0.8847,-0.8847,-0.8852,-0.8859,-0.886,-0.8853,-0.8865,-0.8868,-0.8883,-0.8891,-0.8877,-0.8878,-0.8923,-0.8924,-0.8924,-0.8931,0,0,0,0,0,0,-0.8813,-0.8817,-0.8823,-0.8831,-0.8835,-0.8855,-0.8847,-0.8848,-0.8854,-0.8853,-0.8862,-0.8863,-0.8865,-0.8881,-0.8884,-0.8892,-0.8879,-0.8922,-0.8923,-0.8924,-0.893,-0.8932,-0.8934,0,0,0,0,0,-0.8812,-0.8824,-0.8823,-0.8826,-0.8843,-0.8856,-0.8858,-0.8859,-0.8855,-0.8861,-0.8865,-0.8863,-0.889,-0.8883,-0.8886,-0.8894,-0.8922,-0.8923,-0.8924,-0.8929,-0.8932,-0.8933,0,0,0,0,0,0,-0.8817,-0.8825,-0.8824,-0.884,-0.8847,-0.8855,-0.8863,-0.8862,-0.8871,-0.887,-0.8872,-0.8874,-0.8889,-0.8894,-0.8886,-0.8912,-0.8905,-0.8907,-0.8908,-0.891,-0.8912,-0.891,-0.888,0,0,0,0,0,-0.882,-0.8829,-0.8836,-0.8849,-0.8853,-0.8858,-0.8863,-0.8864,-0.8872,-0.8875,-0.888,-0.8888,-0.8898,-0.8905,-0.8914,-0.8931,-0.8933,-0.8939,-0.8941,-0.8942,-0.8943,-0.8952,-0.8955,-0.8929,-0.8929,-0.8929,0,0,-0.8826,-0.8832,-0.8837,-0.8851,-0.8856,-0.8866,-0.886,-0.8871,-0.8878,-0.8876,-0.889,-0.8895,-0.8904,-0.892,-0.8927,-0.8924,-0.8951,-0.8944,-0.8945,-0.8945,-0.8954,-0.8956,-0.8959,-0.893,-0.893,-0.8929,0,0,-0.8841,-0.8847,-0.8858,-0.8864,-0.8873,-0.8876,-0.8879,-0.8887,-0.889,-0.8904,-0.8903,-0.8913,-0.893,-0.8936,-0.8942,-0.8961,-0.8959,-0.8965,-0.8973,-0.8982,-0.8984,-0.8986,-0.8992,-0.8994,-0.8966,-0.8966,-0.8966,0,-0.8848,-0.8862,-0.8864,-0.8875,-0.8881,-0.888,-0.8892,-0.8897,-0.8909,-0.8913,-0.891,-0.8932,-0.8938,-0.8955,-0.896,-0.8965,-0.8968,-0.8963,-0.8983,-0.8985,-0.8987,-0.8993,-0.8995,-0.8967,-0.8966,-0.8966,-0.8966,0,-0.8869,-0.8879,-0.8888,-0.8898,-0.8905,-0.8917,-0.8921,-0.8928,-0.8929,-0.8932,-0.8947,-0.8954,-0.8966,-0.897,-0.8971,-0.8988,-0.8986,-0.8983,-0.8976,-0.899,-0.8996,-0.8998,-0.8967,-0.8967,-0.8967,-0.8967,0,0,-0.8887,-0.8899,-0.8902,-0.8907,-0.8917,-0.8925,-0.8937,-0.8948,-0.8953,-0.8962,-0.8972,-0.8987,-0.8985,-0.8991,-0.8993,-0.9001,-0.9015,-0.8997,-0.8998,-0.9,-0.9034,-0.9035,-0.9037,-0.9015,-0.9015,-0.9016,-0.9033,0,-0.8903,-0.8922,-0.8925,-0.8942,-0.8952,-0.8952,-0.8962,-0.8969,-0.8974,-0.8983,-0.8988,-0.8998,-0.8995,-0.8998,-0.9007,-0.9012,-0.9022,-0.9011,-0.9024,-0.9024,-0.902,-0.9041,-0.9042,-0.9057,-0.9035,-0.9036,-0.9036,0,-0.8923,-0.8932,-0.895,-0.8959,-0.8963,-0.8972,-0.8982,-0.8991,-0.9,-0.9002,-0.901,-0.9011,-0.9024,-0.9017,-0.9035,-0.9027,-0.9033,-0.9037,-0.9037,-0.9037,-0.903,-0.904,-0.9062,-0.9064,-0.904,-0.9039,-0.9039,0,-0.8933,-0.895,-0.8962,-0.8967,-0.8978,-0.8984,-0.8989,-0.8998,-0.9004,-0.9013,-0.9018,-0.9029,-0.9034,-0.9043,-0.9048,-0.9043,-0.9065,-0.9059,-0.9067,-0.9067,-0.907,-0.9069,-0.9092,-0.9076,-0.9076,-0.9076,-0.9076,0,-0.8949,-0.896,-0.8967,-0.8975,-0.8987,-0.8991,-0.9003,-0.9008,-0.9016,-0.9025,-0.9027,-0.9036,-0.9041,-0.9051,-0.9055,-0.9068,-0.9071,-0.9074,-0.9074,-0.9073,-0.9072,-0.9075,-0.9074,-0.9077,-0.9076,-0.9076,-0.9076,0,-0.8962,-0.8967,-0.8981,-0.899,-0.8993,-0.9002,-0.901,-0.9018,-0.9023,-0.9034,-0.9037,-0.9045,-0.9056,-0.9062,-0.9076,-0.9079,-0.9094,-0.9095,-0.9091,-0.9091,-0.9098,-0.9097,-0.9122,-0.9126,-0.9109,-0.9109,-0.9109,0,-0.8971,-0.898,-0.899,-0.8996,-0.9001,-0.9011,-0.9017,-0.9022,-0.9029,-0.904,-0.9047,-0.9059,-0.9068,-0.9087,-0.9094,-0.9105,-0.9105,-0.9113,-0.9107,-0.9105,-0.9104,-0.9103,-0.9104,-0.9114,-0.9114,-0.9114,-0.9114,0,-0.8987,-0.8989,-0.8998,-0.9008,-0.9016,-0.9025,-0.9033,-0.9038,-0.9044,-0.9052,-0.9063,-0.9071,-0.9086,-0.9097,-0.9109,-0.9115,-0.9116,-0.9117,-0.9119,-0.9117,-0.9114,-0.9115,-0.9093,-0.9116,-0.9116,-0.9116,-0.9115,-0.9115,-0.8998,-0.9005,-0.9013,-0.9024,-0.903,-0.9038,-0.9046,-0.9052,-0.9061,-0.9073,-0.9076,-0.9088,-0.9098,-0.9114,-0.9121,-0.9131,-0.9129,-0.9133,-0.9133,-0.9134,-0.9134,-0.9113,-0.9133,-0.9133,-0.9133,-0.9133,-0.9133,0,-0.9013,-0.9019,-0.9028,-0.9039,-0.9047,-0.9048,-0.9057,-0.9064,-0.9075,-0.9083,-0.9093,-0.9106,-0.9118,-0.9126,-0.9138,-0.9145,-0.9145,-0.9148,-0.9147,-0.9148,-0.9135,-0.9131,-0.9147,-0.9147,-0.9147,-0.9147,-0.9147,-0.9147,-0.9022,-0.9034,-0.9037,-0.9053,-0.9059,-0.907,-0.9076,-0.9083,-0.909,-0.9105,-0.9115,-0.912,-0.9129,-0.9142,-0.9152,-0.9155,-0.9159,-0.9161,-0.9163,-0.915,-0.9149,-0.9147,-0.9144,-0.9162,-0.9162,-0.9175,-0.9175,-0.9175]},{"header":{"parameterUnit":"m.s-1","parameterCategory":1,"la1":30.2991,"la2":30.254,"lo1":-89.0895,"lo2":-89.0444,"dy":0.0017,"dx":0.0017,"nx":28,"ny":28,"refTime":"2024-11-25T03:00:00:Z","depth":0,"parameterNumber":3,"parameterNumberName":"V-component_of_WINDS"},"data":[0,0,0,0,0,0,0,0,0,0,0,0,0,0,0,0,0,0,0,0,0,0,0,0,0,0,0,0,0,0,0,0,0,0,0,0,0,0,0,0,0,0,0,0,0,0,0,0,0,0,0,0,0,0,0,0,0,0,2.7029,2.7029,0,2.7009,2.7009,2.7009,2.7039,2.704,2.7041,2.7043,2.7016,2.7014,2.7013,0,0,0,0,0,0,0,0,0,0,0,0,0,2.7089,2.7087,2.7029,2.7029,2.7029,2.7009,2.7009,2.7009,2.7039,2.704,2.7042,2.7043,2.7017,2.7015,2.7013,0,0,0,0,0,0,0,0,0,0,0,0,0,2.7065,2.7087,2.7029,2.7042,2.7043,2.7009,2.7009,2.7009,2.7039,2.704,2.7042,2.7044,2.7017,2.7015,2.7012,2.6964,0,0,2.7004,2.7003,0,0,0,0,0,0,0,0,2.7066,2.7063,2.704,2.7041,2.7042,2.7029,2.702,2.6993,2.7038,2.704,2.7043,2.7044,2.7018,2.7016,2.7008,2.6963,2.6962,2.7004,2.7003,2.7002,2.7001,0,0,0,0,0,0,0,2.7068,2.7064,2.7021,2.704,2.7041,2.7047,2.7045,2.7015,2.702,2.704,2.7042,2.704,2.7019,2.7011,2.7008,2.6961,2.7004,2.7002,2.7,2.6999,2.6876,2.6874,0,0,0,0,0,0,2.7069,2.7065,2.7022,2.7021,2.7058,2.7044,2.7043,2.7031,2.7021,2.7021,2.7038,2.7041,2.7014,2.7011,2.7007,2.6951,2.7002,2.6999,2.6998,2.6877,2.6875,2.6873,0,0,0,0,0,0,2.707,2.7065,2.7023,2.7043,2.7038,2.7042,2.7028,2.703,2.7022,2.702,2.702,2.7029,2.7016,2.7011,2.6975,2.695,2.6998,2.6996,2.6879,2.6877,2.6874,2.6837,0,0,0,0,0,0,2.7071,2.7065,2.7048,2.7043,2.7037,2.6992,2.7027,2.7028,2.7018,2.7021,2.7011,2.7011,2.7016,2.6979,2.6973,2.6947,2.6994,2.6882,2.6878,2.6875,2.684,2.6833,2.6827,0,0,0,0,0,2.7073,2.7036,2.7047,2.7041,2.7016,2.6991,2.6987,2.6996,2.7016,2.6998,2.6997,2.7011,2.6954,2.6975,2.6968,2.6942,2.6883,2.6879,2.6875,2.6843,2.6834,2.6827,0,0,0,0,0,0,2.7036,2.7036,2.7047,2.7008,2.6999,2.6996,2.6974,2.6987,2.6971,2.6974,2.6984,2.6982,2.6944,2.6939,2.6962,2.6895,2.6922,2.6916,2.6899,2.6891,2.6885,2.6886,2.6992,0,0,0,0,0,2.7023,2.7004,2.7005,2.697,2.6965,2.697,2.6959,2.6967,2.6958,2.6954,2.695,2.6939,2.6918,2.6904,2.6886,2.684,2.6838,2.6818,2.6812,2.6806,2.6801,2.6777,2.6768,2.686,2.686,2.686,0,0,2.6996,2.6994,2.6981,2.6962,2.6956,2.6935,2.6967,2.6943,2.6927,2.6949,2.6916,2.6913,2.6901,2.686,2.6842,2.6855,2.6776,2.6801,2.6797,2.6795,2.6772,2.6763,2.6756,2.6858,2.6858,2.6859,0,0,2.6936,2.6933,2.6904,2.6898,2.689,2.6894,2.6887,2.6882,2.6882,2.6849,2.6866,2.6846,2.6811,2.6802,2.6793,2.6731,2.6744,2.6724,2.669,2.6666,2.6659,2.6652,2.663,2.6622,2.672,2.6719,2.6719,0,2.6903,2.6874,2.6887,2.6863,2.6853,2.6876,2.6846,2.6839,2.6824,2.6816,2.6832,2.6789,2.6782,2.674,2.6726,2.6717,2.6709,2.6725,2.6659,2.6653,2.6647,2.6626,2.6618,2.6717,2.6717,2.6718,2.6718,0,2.6834,2.6813,2.679,2.6779,2.6767,2.6739,2.6747,2.6733,2.6742,2.6744,2.671,2.6704,2.6684,2.6675,2.6682,2.6633,2.6642,2.6658,2.6685,2.6636,2.6616,2.6608,2.6714,2.6715,2.6715,2.6716,0,0,2.6749,2.6746,2.6737,2.6732,2.6726,2.6709,2.6682,2.6666,2.6654,2.6643,2.662,2.659,2.6606,2.6595,2.6602,2.6581,2.6533,2.66,2.66,2.6588,2.6479,2.6467,2.6457,2.6542,2.6541,2.6539,2.648,0,2.669,2.6646,2.6658,2.6614,2.6595,2.6616,2.6593,2.6585,2.6586,2.6569,2.6569,2.6548,2.657,2.6564,2.6545,2.6543,2.6511,2.6548,2.652,2.6519,2.6522,2.6447,2.6434,2.6378,2.6472,2.6471,2.647,0,2.6615,2.6604,2.6559,2.6556,2.6549,2.6528,2.6514,2.6497,2.6489,2.6491,2.648,2.6492,2.6464,2.6492,2.6453,2.6478,2.6467,2.6465,2.6463,2.646,2.6491,2.6442,2.636,2.6352,2.6458,2.6459,2.646,0,2.6557,2.6531,2.6501,2.6496,2.6492,2.6477,2.6475,2.6468,2.6458,2.6445,2.6438,2.6421,2.6411,2.6397,2.6403,2.6423,2.6363,2.6392,2.6363,2.6363,2.6349,2.635,2.6264,2.6342,2.6343,2.6343,2.6343,0,2.649,2.6462,2.6476,2.6457,2.6425,2.6438,2.6406,2.6405,2.64,2.638,2.6397,2.6378,2.6387,2.6368,2.6372,2.634,2.6335,2.6335,2.6337,2.6334,2.6334,2.6326,2.633,2.6341,2.6341,2.6342,2.6342,0,2.642,2.6429,2.6397,2.6397,2.6397,2.6373,2.6372,2.6354,2.6357,2.6333,2.6327,2.6331,2.631,2.6315,2.6291,2.6294,2.6253,2.6259,2.6256,2.6258,2.6229,2.6232,2.6136,2.6124,2.621,2.6209,2.6208,0,2.6377,2.6356,2.6354,2.6344,2.6341,2.6323,2.6313,2.6325,2.6313,2.6303,2.6286,2.6267,2.6252,2.6217,2.6217,2.6198,2.6204,2.6172,2.6201,2.6199,2.6203,2.6205,2.6202,2.6166,2.6165,2.6164,2.6163,0,2.6299,2.6305,2.6291,2.6278,2.6267,2.6257,2.6248,2.6238,2.6249,2.6235,2.6215,2.6204,2.6181,2.6161,2.6145,2.614,2.6153,2.6154,2.6147,2.6143,2.6143,2.6142,2.624,2.6156,2.6157,2.6157,2.6158,2.6158,2.6241,2.6224,2.622,2.6204,2.62,2.6192,2.6175,2.6177,2.6162,2.6145,2.6153,2.6129,2.6121,2.6101,2.6095,2.6076,2.6088,2.6076,2.6074,2.6071,2.6067,2.6146,2.6072,2.6073,2.6073,2.6073,2.6073,0,2.6164,2.6163,2.6149,2.6138,2.6125,2.6141,2.6132,2.612,2.61,2.6093,2.6079,2.6056,2.6037,2.6036,2.6018,2.6003,2.6008,2.5998,2.5999,2.5998,2.6058,2.6066,2.5994,2.5994,2.5994,2.5994,2.5994,2.5994,2.6122,2.6094,2.6099,2.6069,2.6068,2.6047,2.6041,2.6033,2.6028,2.6002,2.5988,2.5988,2.5983,2.5965,2.5948,2.5948,2.594,2.5928,2.593,2.5985,2.5993,2.6001,2.6009,2.5926,2.5926,2.5871,2.5871,2.587]}]]